First Steps to pilot training

For those of you just starting out on the path to pilot training we hope our site will give you a clear understanding of the steps you need to follow to achieve your ambition with Cretan Eagle.

 

e-Learning Ground School

The ground training can be done remotely by flight instructors via computer in case you are away from Iraklion.You can try out the cretan eagle online tests in the website in order to be prepared for the examinations

Beautiful Crete (History & Info)

Crete is the largest and most populous of the Greek islands, the fifth-largest island in the Mediterranean Sea, and one of the thirteen administrative regions of Greece. It forms a significant......

Read more

Student's Login

Local Time

LGIR WEATHER

[source: ADDS]
METAR
LGIR 302150Z 29006KT CAVOK 20/15 Q1018 NOSIG =
TAF
TAF LGIR 301700Z 3018/0118 31010KT 9999 FEW025 =

Czech sport aircraft

Cretan Eagle Aviation Ltd. is proud to be appointed as an authorized Czech Sport Aircraft Promoter for Greece
and Cyprus. Please click on the link or give us a call for any additional information on Czech Sport Aircraft.

 

 

On-line PPL QUIZ

Student members can join our free on-line database to practice on PPL quizzes and get ready for the real
exams. Becoming a member and getting access to our system is FREE for all of our students.

 

Paypal Verified

Payments for any Course can be made by Bank Transfer, Cash and PayPal secure payment.

 

Go to top